Location: Santa Giusta
(39.8800°N, 8.6069°E)
Time: 16:20:57
(UTC+00:00)

Cosmos 1544 Rocket - Pass Details

Date: 02 February 2023
Orbit: 604 x 628 km, 82.5° (Epoch: 31 March)

Event Time Altitude Azimuth Distance (km) Brightness Sun altitude
Rises 17:06:22 0° 350° (N) 2,867 6.9 -4.6°
Reaches altitude 10° 17:08:35 10° 349° (N) 1,959 6.1 -5.0°
Maximum altitude 17:12:55 75° 264° (W) 631 3.8 -5.8°
Drops below altitude 10° 17:17:13 10° 180° (S) 1,950 6.3 -6.5°
Sets 17:19:25 0° 178° (S) 2,852 7.2 -7.0°
